Weather History for KHVN - November, 2012

Change the Weather History Date:

Sunday, November 4, 2012

  Actual Average Record
Temperature  
Mean Temperature 48 °F -  
Max Temperature 55 °F 53 °F 75 °F (1990)
Min Temperature 41 °F 38 °F 27 °F (2004)
Degree Days  
Heating Degree Days 18    
Moisture  
Dew Point 30 °F    
Average Humidity 54    
Maximum Humidity 65    
Minimum Humidity 40    
Precipitation  
Precipitation 0.00 in - - ()
Sea Level Pressure  
Sea Level Pressure 29.93 in    
Wind  
Wind Speed 7 mph (NW)    
Max Wind Speed 9 mph    
Max Gust Speed -    
Visibility 10 miles    
Events      
Averages and records for this station are not official NWS values.
T = Trace of Precipitation, MM = Missing Value Source: NWS Daily Summary

Daily Weather History Graph

Daily Weather History Graph

Search for Another Location

Airport or City:

Trip Planner

Search our weather history database for the weather conditions in past years. The results will help you decide how hot, cold, wet, or windy it might be!

Date:

Astronomy

Nov. 04, 2012 Rise Set
Actual Time 6:26 AM EST 4:42 PM EST
Civil Twilight 5:58 AM EST 5:11 PM EST
Nautical Twilight 5:25 AM EST 5:44 PM EST
Astronomical Twilight 4:53 AM EST 6:16 PM EST
Moon 9:17 PM EST (11/4) 11:09 AM EST (11/4)
Length of Visible Light 11h 13m
Length of Day
10h 15m
Waning Gibbous, 72% of the Moon is Illuminated
Nov 4
Waning Gibbous
Nov 6
Last Quarter
Nov 13
New
Nov 20
First Quarter
Nov 28
Full

Hourly Weather History & Observations

Time (EST) Temp. Windchill Dew Point Humidity Pressure Visibility Wind Dir Wind Speed Gust Speed Precip Events Conditions
12:53 AM 43.0 °F 38.8 °F 30.0 °F 60% 29.91 in 10.0 mi NNW 6.9 mph - N/A   Clear
1:53 AM 43.0 °F 38.8 °F 28.9 °F 58% 29.90 in 10.0 mi NW 6.9 mph - N/A   Clear
1:53 AM 43.0 °F 39.5 °F 30.0 °F 60% 29.91 in 10.0 mi Variable 5.8 mph - N/A   Clear
2:53 AM 42.1 °F 38.4 °F 28.9 °F 60% 29.90 in 10.0 mi NW 5.8 mph - N/A   Clear
3:53 AM 42.1 °F 39.2 °F 28.9 °F 60% 29.90 in 10.0 mi NW 4.6 mph - N/A   Clear
4:53 AM 41.0 °F 38.0 °F 30.0 °F 65% 29.91 in 10.0 mi NW 4.6 mph - N/A   Clear
5:53 AM 41.0 °F 36.4 °F 30.0 °F 65% 29.91 in 10.0 mi NNW 6.9 mph - N/A   Clear
6:53 AM 42.1 °F 38.4 °F 30.0 °F 62% 29.94 in 10.0 mi WNW 5.8 mph - N/A   Partly Cloudy
7:53 AM 43.0 °F 39.5 °F 30.9 °F 62% 29.96 in 10.0 mi WNW 5.8 mph - N/A   Clear
8:53 AM 46.0 °F 42.5 °F 30.0 °F 54% 29.95 in 10.0 mi NW 6.9 mph - N/A   Clear
9:53 AM 48.0 °F - 30.0 °F 50% 29.94 in 10.0 mi WNW 4.6 mph - N/A   Clear
10:53 AM 50.0 °F - 30.0 °F 46% 29.93 in 10.0 mi NW 4.6 mph - N/A   Clear
11:53 AM 52.0 °F - 30.0 °F 43% 29.91 in 10.0 mi Variable 5.8 mph - N/A   Clear
12:53 PM 54.0 °F - 30.9 °F 41% 29.89 in 10.0 mi WNW 8.1 mph - N/A   Clear
1:53 PM 54.0 °F - 30.9 °F 41% 29.88 in 10.0 mi Variable 6.9 mph - N/A   Clear
2:53 PM 54.0 °F - 30.0 °F 40% 29.90 in 10.0 mi NW 9.2 mph - N/A   Clear
3:53 PM 52.0 °F - 30.0 °F 43% 29.91 in 10.0 mi NW 9.2 mph - N/A   Clear
4:53 PM 48.0 °F - 28.9 °F 48% 29.92 in 10.0 mi NNW 9.2 mph - N/A   Clear
5:53 PM 46.0 °F 41.4 °F 28.9 °F 51% 29.94 in 10.0 mi North 9.2 mph - N/A   Clear
6:53 PM 44.1 °F 39.0 °F 28.9 °F 55% 29.96 in 10.0 mi NNW 9.2 mph - N/A   Clear
7:53 PM 43.0 °F 38.2 °F 28.0 °F 56% 29.97 in 10.0 mi NNW 8.1 mph - N/A   Clear
8:53 PM 42.1 °F 37.7 °F 28.0 °F 58% 29.97 in 10.0 mi NNW 6.9 mph - N/A   Clear
9:53 PM 42.1 °F 39.2 °F 28.9 °F 60% 29.97 in 10.0 mi NW 4.6 mph - N/A   Clear
10:53 PM 42.1 °F 38.4 °F 28.9 °F 60% 29.97 in 10.0 mi NW 5.8 mph - N/A   Mostly Cloudy